Location: Erfurt
(50.9688°N, 11.0193°E)
Time: 12:19:25
(UTC+01:00)

ISS - Pass Details

Date: 12 November 2017
Orbit: 402 x 407 km, 51.6° (Epoch: 24 November)

Event Time Altitude Azimuth Distance (km) Brightness Sun altitude
Exits shadow 05:52:30 33° 267° (W) 699 -3.2 -14.9°
Maximum altitude 05:53:43 60° 201° (SSW) 464 -3.7 -14.7°
Drops below altitude 10° 05:56:56 10° 120° (ESE) 1,453 0.2 -14.2°
Sets 05:59:01 0° 117° (ESE) 2,311 1.6 -13.9°
